Hourly Data Report for May 02, 2018

KUGAARUK CLIMATE
NUNAVUT
Current Station Operator: ECCC - MSC

68°32'15.060" N
89°47'47.020" W
15.80 m
2303094
71407
NBB

Download Data

Hourly Data (May 2018)
Hourly Data Report for May 2, 2018
TIME
LST
Temp Definition
°C
Dew Point Definition
°C
Rel Hum Definition
%
Precip. Amount Definition
mm

Wind Dir Definition
10's deg

Wind Spd Definition
km/h
Visibility Definition
km
Stn Press Definition
kPa
Hmdx Definition


Wind Chill Definition


Weather Definition


00:00 -21.7 -24.9 76 0.2 23 15   100.90   -31 LegendNANA
01:00 -19.5 -22.3 78 0.0 22 17   100.86   -29 LegendNANA
02:00 -21.6 -24.3 79 0.0 34 2   100.83   -23 LegendNANA
03:00 -23.8 -27.0 75 0.0 8 5   100.79   -29 LegendNANA
04:00 -23.6 -27.4 70 0.0 5 7   100.74   -30 LegendNANA
05:00 -23.6 -27.8 69 0.0 8 5   100.70   -28 LegendNANA
06:00 -23.1 -27.5 67 0.0 7 6   100.64   -29 LegendNANA
07:00 -22.9 -27.9 63 0.0 4 4   100.56   -27 LegendNANA
08:00 -21.2 -26.6 62 0.0 5 6   100.49   -26 LegendNANA
09:00 -19.0 -24.3 63 0.0 7 6   100.40   -24 LegendNANA
10:00 -17.1 -22.8 61 0.0 3 8   100.32   -23 LegendNANA
11:00 -13.1 -18.9 62 0.0 5 12   100.20   -20 LegendNANA
12:00 -10.8 -16.5 63 0.0 19 12   100.17   -17 LegendNANA
13:00 -12.9 -16.0 78 0.0 15 31   100.09   -23 LegendNANA
14:00 -12.3 -15.9 74 0.0 14 28   100.02   -22 LegendNANA
15:00 -11.6 -14.6 79 0.0 14 26   99.97   -21 LegendNANA
16:00 -10.6 -14.5 73 0.0 10 8   99.94   -15 LegendNANA
17:00 -11.6 -14.2 81 0.0 6 11   99.91   -18 LegendNANA
18:00 -11.3 -13.7 83 0.0 9 13   99.88   -18 LegendNANA
19:00 -12.1 -14.1 85 0.0 5 17   99.88   -20 LegendNANA
20:00 -12.7 -14.7 85 0.0 5 20   99.88   -21 LegendNANA
21:00 -13.3 -15.3 85 0.0 6 21   99.88   -22 LegendNANA
22:00 -13.6 -15.4 86 0.0 6 17   99.88   -22 LegendNANA
23:00 -14.4 -16.2 86 0.0 5 10   99.92   -21 LegendNANA

Notes on Data Quality.

Legend

  • E = Estimated
  • M = Missing
  • NA = Not Available*
  • [empty] = Indicates an unobserved value
Date modified: